Regional Weather Roundup
Issued by NWS

Home | Current Version | Previous Version | Graphics & Text | Print | Product List | Glossary On
Versions: 1 2 3 4 5 6 7 8 9 10 11 12 13 14 15 16 17 18 19 20 21 22 23 24 25 26 27
000
ASUS45 KBOU 181106
RWRCO

WEATHER ROUNDUP FOR COLORADO
NATIONAL WEATHER SERVICE DENVER/BOULDER CO
500 AM MDT FRI APR 18 2014

NOTE: "FAIR" INDICATES FEW OR NO CLOUDS BELOW 12000 FEET WITH NO
SIGNIFICANT WEATHER AND/OR OBSTRUCTIONS TO VISIBILITY.

COZ001>005-013-030-031-181200-
...NORTHWEST COLORADO...

CITY           SKY/WX    TMP DP  RH WIND       PRES   REMARKS
CRAIG          CLEAR     32  24  72 CALM      30.05S
HAYDEN         CLEAR     36  25  64 E12       30.09R
MEEKER         CLEAR     35  26  69 E5        30.06S WCI  31
MOUNT WERNER   CLEAR     39  14  35 S14       30.23S
STEAMBOAT SPGS CLEAR     32  23  70 CALM      30.10R
WALDEN         CLEAR     30  21  69 SE8       30.12R WCI  23
$$

COZ006>008-011-181200-
...WEST CENTRAL VALLEYS...

CITY           SKY/WX    TMP DP  RH WIND       PRES   REMARKS
GRAND JUNCTION CLEAR     46  26  45 E14       30.01S
MONTROSE       CLEAR     40  28  62 SE8       30.10R
EAGLE          CLEAR     30  27  86 SE3       30.16S
RIFLE          CLEAR     35  27  72 CALM      30.08S
DELTA          CLEAR     44  28  54 E8        30.08R
NUCLA            N/A     43  27  52 E7        30.11S
$$

COZ017>023-064>068-181200-
...SOUTHWEST COLORADO...

CITY           SKY/WX    TMP DP  RH WIND       PRES   REMARKS
DURANGO        PTCLDY    34  18  52 VRB3      30.17R
CORTEZ         CLEAR     33  23  66 CALM      30.10F
PAGOSA SPRINGS PTCLDY    32  19  59 CALM      30.23S
TELLURIDE      MOCLDY    39  21  48 SE7       30.22F
WOLF CREEK PAS CLEAR     28  16  59 SW26      30.35S WCI  13
$$

COZ009-010-012-014-032>034-037-058>063-181200-
...CENTRAL COLORADO...

CITY           SKY/WX    TMP DP  RH WIND       PRES   REMARKS
ASPEN          CLEAR     35  21  56 SW8       30.15S WCI  29
BUENA VISTA    CLEAR     33  22  64 W5        30.19S WCI  28
COPPER MTN     PTCLDY    34  18  51 S13G20    30.32R WCI  25
BERTHOUD PASS  FAIR      28  19  69 W26G32    30.31R WCI  13
COTTONWOOD PAS CLEAR     41  19  42 NW6       30.25R
GUNNISON       CLEAR     28  21  74 CALM      30.26R
KREMMLING      CLEAR     30  23  74 W5        30.16S WCI  25
LEADVILLE      CLEAR     25  15  66 CALM      30.24R
MONARCH PASS   CLEAR     30  18  59 SW15      30.43S WCI  19
SALIDA         CLEAR     41  26  56 NW6       30.25R
SUNLIGHT       CLEAR     34  25  69 CALM      30.26S
WILKERSON PASS CLEAR     32  18  55 SW8G22    30.29R WCI  25
$$

COZ069>075-181200-
...SAN LUIS VALLEY/SANGRE DE CRISTO MOUNTAINS...

CITY           SKY/WX    TMP DP  RH WIND       PRES   REMARKS
ALAMOSA        PTCLDY    32  26  78 E5        30.20S WCI  27
LA VETA PASS   CLEAR     30  21  69 SW16G25   30.23S WCI  19
SAGUACHE       NOT AVBL
$$

COZ035-036-038>040-181200-
...NORTHERN COLORADO FRONT RANGE...

CITY           SKY/WX    TMP DP  RH WIND       PRES   REMARKS
DENVER INTL AP PTCLDY    49  26  41 SW15      29.99S
DMNS CITY PARK   N/A     47  28  47 SE3G9     29.99S
AURORA         PTCLDY    46  27  46 S7        30.01S
FRONT RANGE AP NOT AVBL
ERIE MUNI ARPT CLEAR     36  32  86 N3        29.98S
BOULDER MUN AP CLEAR     37  32  81 N5        29.97S
CENTENNIAL     CLEAR     42  25  50 SW8       30.01F
BROOMFIELD     CLEAR     46  27  46 CALM      30.00R
FORT COLLINS   CLEAR     37  30  75 CALM      30.00S
LONGMONT       CLEAR     36  32  83 CALM      30.00S
$$

COZ041-046-047-076>085-087-088-181200-
...PIKES PEAK/PALMER DIVIDE AND SOUTHERN FOOTHILLS...

CITY           SKY/WX    TMP DP  RH WIND       PRES   REMARKS
COLO. SPRINGS  PTCLDY    33  30  88 N9        30.07F WCI  25
A. F. ACADEMY  CLEAR     32  31  96 VRB1      30.07S
ELLICOTT       NOT AVBL
FALCON         CLEAR     32  30  93 NW6       30.09S WCI  26
FORT CARSON    CLEAR     33  31  93 NW7       30.06S WCI  26
LIMON          PTCLDY    26  26 100 CALM      30.06F
MONUMENT HILL  CLEAR     37  27  65 SW13      30.07S
TRINIDAD       CLEAR     42  31  64 SW10      30.08R
$$

COZ042>045-048>051-090-091-181200-
...NORTHEAST COLORADO...

CITY           SKY/WX    TMP DP  RH WIND       PRES   REMARKS
GREELEY ARPT   CLEAR     30  21  69 NW7       29.99S WCI  23
AKRON          CLEAR     39  33  79 S12       29.99F
BURLINGTON     CLEAR     38  33  82 S17       30.07S
WRAY           CLEAR     39  34  82 S10G16    30.04S
STERLING       CLEAR     37  34  87 SW5       29.99S
HOLYOKE        CLEAR     37  34  87 S14       30.01F
FORT MORGAN    CLEAR     37  34  87 CALM      30.00S
$$

COZ086-089-092>099-181200-
...SOUTHEAST COLORADO...

CITY           SKY/WX    TMP DP  RH WIND       PRES   REMARKS
PUEBLO         CLEAR     38  34  85 CALM      30.06R
LA JUNTA       CLEAR     41  34  76 SW12      30.04S
LAMAR          CLEAR     41  35  79 S12       30.05F
SPRINGFIELD      N/A     40  35  83 S24G32    30.09F
$$



USA.gov is the U.S. government's official web portal to all federal, state and local government web resources and services.